Alexandria, LA

5:53 PM CDT on April 28, 2017 (GMT -0500)
Alexandria International

Weather History for KAEX - February, 2002

Change the Weather History Date:

Wednesday, February 27, 2002

  Actual Average Record
Temperature  
Mean Temperature 33 °F 55 °F  
Max Temperature 43 °F 66 °F 85 °F (1986)
Min Temperature 23 °F 44 °F 21 °F (2002)
Degree Days  
Heating Degree Days 32 11  
Month to date heating degree days 364  
Since 1 July heating degree days 1655  
Moisture  
Dew Point 15 °F    
Average Humidity 49    
Maximum Humidity 73    
Minimum Humidity 32    
Precipitation  
Precipitation 0.00 in 0.16 in 2.65 in (1923)
Month to date precipitation 4.30  
Year to date precipitation 9.52  
Snow  
Snow 0.00 in - 0.00 in ()
Month to date snowfall  
Since 1 July snowfall  
Snow Depth -    
Sea Level Pressure  
Sea Level Pressure 30.38 in    
Wind  
Wind Speed 9 mph (NW)    
Max Wind Speed 13 mph    
Max Gust Speed -    
Visibility 10 miles    
Events      
T = Trace of Precipitation, MM = Missing Value Source: NWS Daily Summary

Daily Weather History Graph

Daily Weather History Graph

Search for Another Location

Airport or City:

Trip Planner

Search our weather history database for the weather conditions in past years. The results will help you decide how hot, cold, wet, or windy it might be!

Date:

Astronomy

Feb. 27, 2002 Rise Set
Actual Time 6:39 AM CST 6:06 PM CST
Civil Twilight 6:14 AM CST 6:31 PM CST
Nautical Twilight 5:46 AM CST 6:59 PM CST
Astronomical Twilight 5:18 AM CST 7:27 PM CST
Moon 6:44 PM CST (2/27) 7:08 AM CST (2/27)
Length of Visible Light 12h 16m
Length of Day
11h 27m
Full, 100% of the Moon is Illuminated
Feb 27
Full
Mar 5
Last Quarter
Mar 13
New
Mar 21
First Quarter
Mar 28
Full

Hourly Weather History & Observations

Time (CST) Temp. Windchill Dew Point Humidity Pressure Visibility Wind Dir Wind Speed Gust Speed Precip Events Conditions
12:53 AM 28.9 °F 18.6 °F 12.9 °F 51% 30.44 in 10.0 mi NW 12.7 mph - N/A   Clear
1:53 AM 28.0 °F 17.5 °F 12.0 °F 51% 30.43 in 10.0 mi NW 12.7 mph - N/A   Clear
2:53 AM 27.0 °F 18.0 °F 14.0 °F 58% 30.43 in 10.0 mi NW 9.2 mph - N/A   Clear
3:53 AM 25.0 °F 17.1 °F 14.0 °F 63% 30.43 in 10.0 mi NW 6.9 mph - N/A   Clear
4:53 AM 24.1 °F 17.0 °F 14.0 °F 65% 30.43 in 10.0 mi NNW 5.8 mph - N/A   Clear
5:53 AM 23.0 °F 14.7 °F 12.9 °F 65% 30.43 in 10.0 mi NNW 6.9 mph - N/A   Clear
7:53 AM 28.0 °F 18.6 °F 12.0 °F 51% 30.46 in 10.0 mi NNW 10.4 mph - N/A   Clear
8:53 AM 30.0 °F 20.5 °F 10.9 °F 45% 30.48 in 10.0 mi North 11.5 mph - N/A   Clear
9:53 AM 33.1 °F 25.5 °F 12.0 °F 42% 30.47 in 10.0 mi NNW 9.2 mph - N/A   Clear
10:53 AM 34.0 °F 28.8 °F 12.0 °F 40% 30.46 in 10.0 mi NW 5.8 mph - N/A   Clear
11:53 AM 37.0 °F 31.6 °F 12.0 °F 36% 30.43 in 10.0 mi Variable 6.9 mph - N/A   Clear
12:53 PM 39.9 °F 32.9 °F 12.9 °F 33% 30.39 in 10.0 mi NNW 11.5 mph - N/A   Clear
1:53 PM 41.0 °F 34.3 °F 12.9 °F 32% 30.35 in 10.0 mi NW 11.5 mph - N/A   Clear
2:53 PM 41.0 °F 35.8 °F 14.0 °F 33% 30.33 in 10.0 mi West 8.1 mph - N/A   Clear
3:53 PM 43.0 °F 38.8 °F 16.0 °F 34% 30.31 in 10.0 mi North 6.9 mph - N/A   Clear
4:53 PM 42.1 °F 37.7 °F 15.1 °F 34% 30.30 in 10.0 mi WNW 6.9 mph - N/A   Clear
5:53 PM 39.0 °F 34.8 °F 16.0 °F 39% 30.28 in 10.0 mi NW 5.8 mph - N/A   Clear
6:53 PM 37.0 °F 33.3 °F 18.0 °F 46% 30.28 in 10.0 mi WNW 4.6 mph - N/A   Clear
7:53 PM 36.0 °F - 19.9 °F 52% 30.30 in 10.0 mi Calm Calm - N/A   Clear
8:53 PM 32.0 °F 28.7 °F 24.1 °F 73% 30.31 in 10.0 mi East 3.5 mph - N/A   Clear
9:53 PM 34.0 °F 29.8 °F 19.0 °F 54% 30.33 in 10.0 mi East 4.6 mph - N/A   Clear
10:53 PM 30.9 °F - 19.9 °F 64% 30.34 in 10.0 mi Calm Calm - N/A   Clear
11:53 PM 28.9 °F - 21.0 °F 72% 30.35 in 10.0 mi Calm Calm - N/A   Clear